STARLINK-36107, 66979

Orbit data source: Space-Track

STARLINK-36107, 66979 is a payload satellite owned by SpaceX/Seattle (US) in LEO that was launched on Mon, 08 Dec 2025 UTC via an FALCON 9 launch vehicle from the Air Force Eastern Test Range (AFETR). Payload-class satellites include a variety of spacecraft equipped with specific instruments for various scientific and technological missions. These include communications satellites like Starlink; space stations such as the ISS; scientific satellites like the Hubble; Earth observation satellites from companies like Planet Labs, Umbra, and HawkEye 360; GPS; miniature CubeSats for education and research; and military/defense satellites.

Loading next visibility...
Identifier
66979, 2025-288W
Orbit
LEO
Country
Flag of USUS
Related business
Manufacturer
SpaceX/Seattle
Mission
Operational Commercial Communications
Bus & Motor
STARLINK V2MO, Unknown motor
Mass
575 kg wet, ~530 kg dry
Launch date (UTC)
2025-12-08 (7 months ago)
Launch vehicle
FALCON 9
Launch site
Air Force Eastern Test Range (AFETR)
Object type
Payload
Rocket body
Debris
Shape & HBR
Box + 2 Pan, 17.7 m
Radar Cross Section
36.964 m², Large (>1 m²)

Expand to show TLE details & history
Last TLE update: 10 hours ago

TLE from 10 hours ago
0 STARLINK-36107
1 66979U 25288W   26177.56362211  .00014042  00000-0  51872-3 0  9998
2 66979  42.9973 128.9831 0001803 276.7905  83.2741 15.27585830 31938
Epoch: 2026-06-26T13:31Z
TLE epoch observation values (Epoch: 2026-06-26T13:31:36.950Z)
Latitude
-0.00004°
Longitude
11.38877°
Altitude
482.662 km
Speed
7.626 km/s
True Right ascension
08h 35m 55s
True Declination
0° 00' 00"
Sunlit
Object was in daylight at epoch
Visualization orbit readout
Latitude
Unknown
Longitude
Unknown
Altitude
Unknown
Speed
Unknown
Apparent Right ascension
Unknown
Apparent Declination
Unknown
Sunlit
N/A
Visualization observer readout
Local Sidereal Time
10:39:40
Azimuth
Unknown
Elevation
Unknown
Doppler factor
Unknown
Orbital elements
Apogee altitude
486.215 km
Perigee altitude
483.74 km
Semi-major axis
6,863.114 km
Eccentricity
0.00018
Inclination
42.9973°
RAAN
128.9831°
Arg. of periapsis
276.7905°
True anomaly
83.29462°
Mean anomaly
83.2741°
Eccentric anomaly
83.28436°
Mean motion
3.81734 °/min
Orbital period
94.31 mins
BSTAR
0.00051872
Loading maneuver chart data...
Computing Atmospheric mass density...
Loading historical data...
Loading historical data...
Loading historical data...
Loading historical data...
Loading historical data...
Loading historical data...
Loading historical data...

Documentation

Showing up to 5 results
|